Tracking 18840 objects as of 18-November-2017
HD Live streaming from Space Station
objects crossing your sky now

FENGYUN 1C DEB


10-day predictions


NORAD ID: 38517
Int'l Code: 1999-025ETC
Launch date: May 10, 1999
Source: People's Republic of China (PRC)
Launch site: Taiyaun Space Center, China (TSC)

Note: This is SATELLITE DEBRIS
aabbcc
Your satellite tracking list
Your tracking list is empty




NASA's NSSDC Master Catalog

Two Line Element Set (TLE):
1 38517U 99025ETC 17320.38473389 +.00001550 +00000-0 +40512-3 0  9993
2 38517 098.6447 020.0047 0120710 105.1882 256.2696 14.46612866189719
Source of the keplerian elements: AFSPC